Weather in Parabel

Russia / Tomsk District     58°42′11″N   81°29′23″E
temp.,
°C
wind,
m/s
gust,
m/s
humid.,
%
clouds,
%
prec.,
mm/h
press.,
hPa
HPBL,
m
17 june, thu
thu1701:00+15wnw369655 1.5 1007108
04:00+14nw379822 0.2 1007170
07:00+15wnw469216 0.2 1007289
10:00+18wnw456127 0.0 1008804
13:00+21nw5549100 0.0 10071650
16:00+21wnw555275 0.0 10061498
19:00+22wnw244850 0.0 10051307
22:00+17sse22683 0.0 100421
18 june, fri
fri1801:00+14s347511 0.0 100353
04:00+16s4106687 0.0 1001245
07:00+16sw4118951 0.2 1001344
10:00+22ssw5766100 0.0 1000643
13:00+20ssw2380100 0.3 100092
16:00+27sw474993 0.0 9982071
19:00+21nnw688285 1.1 997314
22:00+16n71196100 13.1 998278
19 june, sat
sat1901:00+14n5799100 17.3 997223
04:00+12nw6998100 1.9 997310
07:00+9nw5897100 2.0 999335
10:00+9nw4495100 0.0 999396
13:00+9nnw5694100 0.3 1000426
16:00+9nnw6794100 0.3 1000448
19:00+9n6892100 0.4 999491
22:00+8n5893100 0.0 1000440
20 june, sun
sun2001:00+8n4694100 0.1 999290
04:00+7n2397100 0.5 1000196
07:00+8s1296100 0.6 1000207
10:00+10s4590100 0.0 1001675
13:00+12s5773100 0.1 10021132
16:00+11sse6865100 0.1 10031307
19:00+10sse5866100 0.1 10031133
22:00+9sse597182 0.0 1004725
21 june, mon
mon2101:00+7ese41084100 0.1 1003259
04:00+7se61193100 0.2 1003504
07:00+8se4988100 0.2 1004780
10:00+12sse5872100 0.0 1006978
13:00+15se57645 0.0 1006921
16:00+19e6851100 0.0 10051878
19:00+18e7106024 0.0 1006707
22:00+14e511725 0.0 1006298